Location: Unspecified
(0.0000°N, 0.0000°E)
Time: 07:17:52
(UTC+00:00)

Vanguard 2 - Pass Details

Date: 19 December 2018
Orbit: 552 x 2939 km, 32.9° (Epoch: 15 June)

Event Time Altitude Azimuth Distance (km) Brightness Sun altitude
Rises 12:03:34 0° 220° (SW) 5,710 12.2 66.5°
Reaches altitude 10° 12:08:51 10° 208° (SSW) 4,245 11.8 66.4°
Maximum altitude 12:16:57 24° 159° (SSE) 2,510 10.9 66.1°
Drops below altitude 10° 12:22:33 10° 107° (ESE) 2,845 10.6 65.8°
Sets 12:25:16 0° 92° (E) 3,513 10.9 65.6°
